Location: Владивосток
(43.1151°N, 131.8856°E)
Time: 18:34:58
(UTC+10:00)

SPROUT - Pass Details

Date: 03 July 2022
Orbit: 588 x 598 km, 97.9° (Epoch: 09 August)

Event Time Altitude Azimuth Distance (km) Brightness Sun altitude
Exits shadow 02:37:15 36° 269° (W) 941 ? -21.3°
Drops below altitude 10° 02:40:56 10° 330° (NNW) 1,925 ? -21.1°
Sets 02:43:15 0° 339° (NNW) 2,831 ? -20.9°
